Tracking 29892 objects as of 21-Nov-2024
HD Live streaming from Space Station
objects crossing your sky now

STARLINK-32075

Track STARLINK-32075 now!
10-day predictions
STARLINK-32075 is classified as:


NORAD ID: 60345
Int'l Code: 2024-136S
Perigee: 481.7 km
Apogee: 483.1 km
Inclination: 53.2 °
Period: 94.1 minutes
Semi major axis: 6853 km
RCS: Unknown
Launch date: August 2, 2024
Source: United States (US)
Launch site: AIR FORCE EASTERN TEST RANGE (AFETR)
Your satellite tracking list
Your tracking list is empty




NASA's NSSDC Master Catalog

Two Line Element Set (TLE):
1 60345U 24136S   24325.80987868  .00000389  00000-0  25249-4 0  9990
2 60345  53.1607 116.6306 0000977  80.9718 279.1394 15.30188739 18279
Source of the keplerian elements: AFSPC